Regional Weather Roundup
Issued by NWS Wakefield, VA

Home | Current Version | Previous Version | Graphics & Text | Print | Product List | Glossary On
Versions: 1 2 3 4 5 6 7 8 9 10 11 12 13 14 15 16 17 18 19 20 21 22 23 24 25 26 27 28 29 30 31 32 33 34 35 36 37 38 39 40 41 42 43 44 45 46 47 48 49 50
000
ASUS41 KAKQ 210010
RWRAKQ

REGIONAL WEATHER ROUNDUP
NATIONAL WEATHER SERVICE WAKEFIELD VA
700 PM EST SAT DEC 20 2014

Note: "fair" indicates few or no clouds below 12,000 feet with no
significant weather and/or obstructions to visibility. * = Denotes
station may not report precipitation (e.g., rain,snow,etc.),
thunder or fog.

VAZ042-051-052>054-056-210100-
NORTHERN VIRGINIA

CITY           SKY/WX    TMP DP  RH WIND       PRES   REMARKS
WASH NATIONAL  CLOUDY    38  20  48 W6        30.31R
DULLES         CLOUDY    33  22  63 CALM      30.29R
FORT BELVOIR   CLOUDY    33  25  72 CALM      30.30S
QUANTICO       CLOUDY    35  24  64 NW3       30.32S
FREDERICKSBRG* CLOUDY    36  26  66 CALM      30.29F
STAFFORD*      CLOUDY    33  22  64 CALM      30.34R
WARRENTON      CLOUDY    34  30  85 CALM      30.29R
CULPEPER*      CLOUDY    34  27  75 CALM      30.29S
MANASSAS*      NOT AVBL
LEESBURG*      CLOUDY    34  27  75 MISG      30.29F
WINCHESTER     CLOUDY    34  21  60 CALM      30.25F
FRONT ROYAL*   CLOUDY    32  23  69 CALM      30.25S
LURAY*         CLOUDY    34  28  80 N3        30.24S
$$

VAZ048-049-060>072-079>083-210100-
CENTRAL AND SOUTH CENTRAL VIRGINIA

CITY           SKY/WX    TMP DP  RH WIND       PRES   REMARKS
RICHMOND       CLOUDY    37  22  54 NE5       30.29R
CHESTERFIELD*  CLOUDY    37  16  41 CALM      30.30R
PETERSBURG*    CLOUDY    37  29  74 CALM      30.30R
HANOVER        CLOUDY    33  25  72 CALM      30.30S
TAPPAHANNOCK*  CLOUDY    32  25  74 CALM      30.31R
QUINTON*       CLOUDY    35  23  62 CALM      30.29S
CHARLOTTSVILLE CLOUDY    36  24  62 E3        30.26R
GORDONSVILLE*  CLOUDY    33  26  73 CALM      30.27S
ORANGE*        CLOUDY    34  28  80 CALM      30.29S
LOUISA*        CLOUDY    36  27  69 CALM      30.26S
BUMPASS*       CLOUDY    33  26  74 CALM      30.28S
FARMVILLE*     CLOUDY    38  26  62 CALM      30.26R
CREWE*         CLOUDY    35  28  76 CALM      30.26S
FORT PICKETT*  CLOUDY    36  27  69 E3        30.27S
CHASE CITY*    CLOUDY    39  32  75 CALM      30.27R
CLARKSVILLE*   CLOUDY    36  32  87 CALM      30.26S
SOUTH HILL*    CLOUDY    36  29  78 CALM      30.32F
LAWRENCEVILLE* CLOUDY    36  30  78 CALM      30.27S
EMPORIA*       CLOUDY    36  30  80 CALM      30.30S
$$

VAZ088>098-210100-
SOUTHEAST VIRGINIA

CITY           SKY/WX    TMP DP  RH WIND       PRES   REMARKS
NORFOLK        CLEAR     36  29  75 CALM      30.29R
VIRGINIA BEACH PTCLDY    36  28  73 CALM      30.29R
NORFOLK NAVAL  MOCLDY    38  29  70 CALM      30.31R
WEST POINT*    MOCLDY    34  26  71 CALM      30.32R
SALUDA*        CLOUDY    32  27  80 CALM      30.30R
NEWPORT NEWS   CLEAR     35  27  72 CALM      30.30R
LANGLEY AFB    CLEAR     33  28  83 CALM      30.30R
FORT EUSTIS    CLEAR     32  25  75 CALM      30.29R
WILLIAMSBURG*  CLOUDY    37  30  75 CALM      30.31R
HR EXEC AP*    CLEAR     28  25  86 CALM      30.31S
FRANKLIN*      CLOUDY    32  30  93 CALM      30.30R
WAKEFIELD      MOCLDY    32  27  81 CALM      30.29R
$$

VAZ020-022-025-037-045-210100-
WEST CENTRAL AND SOUTHWEST VIRGINIA

CITY           SKY/WX    TMP DP  RH WIND       PRES   REMARKS
STAUNTON*      CLOUDY    34  26  74 CALM      30.24R
WAYNESBORO*    CLOUDY    33  24  70 CALM      30.21S
HOT SPRINGS VA CLOUDY    31  28  90 W9        30.09S
LYNCHBURG      MOCLDY    30  26  85 CALM      30.26R
DANVILLE       CLOUDY    38  30  73 CALM      30.27R
SOUTH BOSTON*  CLOUDY    37  28  70 CALM      30.27R
MARTINSVILLE   CLOUDY    38  31  73 CALM      30.26R
ROANOKE        CLOUDY    36  25  64 SE7       30.25R
BLACKSBURG     CLOUDY    35  28  78 CALM      30.22R
DUBLIN*        CLOUDY    37  33  85 CALM      30.20R
MARION*        DRIZZLE   37  35  94 CALM      30.20S
HILLSVILLE*    CLOUDY    35  29  80 CALM      30.16S
RICHLANDS*     CLOUDY    35  32  90 CALM      30.17S
WISE*          CLOUDY    36  30  80 CALM      30.18R
ABINGDON*      CLOUDY    40  39  97 CALM      30.19R FOG
$$

MDZ021>025-VAZ099-100-210100-
SOUTHERN MARYLAND AND THE DELMARVA PENINSULA

CITY           SKY/WX    TMP DP  RH WIND       PRES   REMARKS
PATUXENT RIVER CLOUDY    34  23  64 SW3       30.30R
BAY BRIDGE APT   N/A     32  23  69 CALM      30.31R
LEONARDTOWN    CLOUDY    32  25  74 CALM      30.31R
DOVER          PTCLDY    32  24  71 CALM      30.28R
GEORGETOWN     PTCLDY    33  25  72 CALM      30.31R
EASTON         MOCLDY    32  28  86 CALM      30.34R
CAMBRIDGE      PTCLDY    34  28  80 CALM      30.30R
SALISBURY      MOCLDY    35  25  66 CALM      30.30R
OCEAN CITY     PTCLDY    33  26  75 CALM      30.30R
WALLOPS ISLAND CLOUDY    32  27  81 NW3       30.30R
ACCOMACK*      PTCLDY    30  27  86 CALM      30.30R
$$

NCZ012>017-030>032-210100-
NORTH CENTRAL AND EASTERN NORTH CAROLINA

CITY           SKY/WX    TMP DP  RH WIND       PRES   REMARKS
ROANOKE RAPIDS CLOUDY    34  32  93 CALM      30.29R
RALEIGH        CLOUDY    38  34  85 CALM      30.28R FOG
ELIZABETH CITY CLOUDY    43  31  62 NE6       30.28R
AHOSKIE*       CLOUDY    34  31  87 CALM      30.30R
EDENTON*       MOCLDY    37  32  82 CALM      30.29R
CURRITUCK*     CLOUDY   N/A N/A N/A CALM      30.30R
KILL DEVIL HLS CLOUDY    41  34  74 N5        30.27R
MANTEO         CLOUDY    41  34  75 N7        30.28S
CAPE HATTERAS  CLOUDY    42  37  82 NE5       30.27R
TARBORO*       CLOUDY    36  34  93 CALM      30.30R
GOLDSBORO      CLOUDY    39  39  98 CALM      30.27R
WASHINGTON     CLOUDY    39  35  85 CALM      30.29R
GREENVILLE     CLOUDY    39  34  81 CALM      30.29S
NEW BERN       CLOUDY    42  37  82 NE5       30.29R
WILMINGTON     CLOUDY    41  39  93 NE8       30.26R
$$

VAZ048-210100-
ELSEWHERE

CITY           SKY/WX    TMP DP  RH WIND       PRES   REMARKS
HARRISBURG PA  PTCLDY    27  19  72 NW5       30.29R
BALTIMORE      CLOUDY    34  23  64 CALM      30.30R
ANNAPOLIS      CLOUDY    35  24  64 CALM      30.31R
ANDREWS AFB    MOCLDY    35  22  58 W7        30.28R
PHILADELPHIA   CLOUDY    35  21  56 N5        30.30R
HENDERSON NC   CLOUDY    37  32  83 CALM      30.27S
GREENSBORO     CLOUDY    37  32  82 E3        30.23R
ROCKY MOUNT    CLOUDY    38  35  89 CALM      30.29R
$$

VAZ100-210100-
MARINE

STATION/POSITION TIME  TEMP    WIND        PRES    WAVE   SWELL
                       AIR SEA DIR/SP/G            HT/PER HT/PER
                 (UTC) (F)     (DEG/KT/KT) (MB)    (FT/S) (FT/S)
CAPE MAY NJ      0000   33 43  100/  2/  3 1025.5R
LEWES DE         0000   36 41  340/  4/  5 1025.8R
15NM E FENWICK I 0000   36 45              1025.4R   1/ 5
OCEAN-CITY-INLET 0000   37 44  330/  3/  4 1025.4R
WACHAPREAGUE VA  0000   32 41  290/  1/  2 1025.8S
THOMAS POINT MD  0000   36 41  150/  2/  2 1027.3R
GOOSES REEF MD   0000   36     VRB  4/  6  1025.0S
COVE POINT MD    0000   34     280/  3/  5 1025.7S
SOLOMONS ISLAND  0000      43                N/A
BISHOPS HEAD MD  0000   35 37  350/  2/  3 1025.5R
POTOMAC MD       0000   36     350/  6/  8 1025.1R
CAMBRIDGE MD     0000   35 40  260/  3/  3 1025.9S
LEWISETTA VA     0000   36 41  320/  5/  5 1025.8F
RAPPAHANNOCK LGT 0000          310/  4/  5 1026.3S
STINGRAY PT      0000   37     340/  4/  6 1026.2S
YORK RVR RNG VA  0000   38      50/  2/  3 1025.3R
YORKTOWN VA      0000   38 45   10/  4/  4 1025.7R
JAMESTOWN VA     0000   36      40/  4/  4   N/A
DOMINION TERM VA 0000   38      40/  2/  3 1025.9R
KIPTOPEKE VA     0000      49   30/  4/  4   N/A
CHES BAY BRIDGE  0000   38 46  360/  4/  5 1025.3S
CAPE HENRY VA    0000   38     340/  4/  7 1024.4R
CHESAPEAKE LGHT  2300   38      10/  6/  7 1025.8R
WILLOUBY STN VA  0000   38      60/  3/  4 1026.2S
S CRANEY ISL VA  0000           60/  5/  6 1025.8R
CAPE HENRY BUOY  0000      50                N/A     2/ 5
1ST LANDING BUOY 0000   39     350/  4/  6 1025.3R
CAPE CHARLES BUO 0000      47                N/A     2/ 5   2/ 5
64NM E OF VA BCH 0000   43 54  350/ 12/ 14 1024.6R   2/ 6   2/ 6
DUCK PIER NC     0000   41 46   10/  9/ 10 1024.5R
44100 DUCK FRF   0000      52                N/A     3/ 6
44056 DUCK FRF   0000      47                N/A     2/ 6
OREGON INLET NC  0000   42 50   10/  6/  9 1025.1R
HATTERAS NC      0000   45 51   30/  7/ 13 1025.1R
DIAMOND SHLS NC  0000   47                 1024.7R   3/ 5
CAPE LOOKOUT NC  2300   43      10/ 11/ 13 1024.4R
$$



USA.gov is the U.S. government's official web portal to all federal, state and local government web resources and services.